Location: Hermaringen
(48.5952°N, 10.2585°E)
Time: 00:23:43
(UTC+00:00)

Cosmos 304 Rocket - Pass Details

Date: 18 November 2025
Orbit: 668 x 677 km, 74.0° (Epoch: 05 December)

Event Time Altitude Azimuth Distance (km) Brightness Sun altitude
Rises 17:01:57 0° 175° (S) 3,001 7.2 -14.1°
Reaches altitude 10° 17:04:23 10° 166° (SSE) 2,094 6.3 -14.5°
Maximum altitude 17:08:35 33° 103° (ESE) 1,132 4.4 -15.1°
Enters shadow 17:10:22 25° 63° (ENE) 1,363 4.7 -15.4°
